[[{"header":{"parameterUnit":"m.s-1","parameterCategory":1,"la1":30.2991,"la2":30.254,"lo1":-89.0895,"lo2":-89.0444,"dy":0.0017,"dx":0.0017,"nx":28,"ny":28,"refTime":"2025-04-25T03:00:00:Z","depth":0,"parameterNumber":2,"parameterNumberName":"U-component_of_WINDS"},"data":[0,0,0,0,0,0,0,0,0,0,0,0,0,0,0,0,0,0,0,0,0,0,0,0,0,0,0,0,0,0,0,0,0,0,0,0,0,0,0,0,0,0,0,0,0,0,0,0,0,0,0,0,0,0,0,0,0,0,0.0337,0.0338,0,0.0355,0.0355,0.0355,0.0345,0.0345,0.0344,0.0344,0.0362,0.0362,0.0363,0,0,0,0,0,0,0,0,0,0,0,0,0,0.0294,0.0295,0.0337,0.0338,0.0338,0.0355,0.0355,0.0355,0.0345,0.0345,0.0344,0.0344,0.0361,0.0362,0.0363,0,0,0,0,0,0,0,0,0,0,0,0,0,0.0312,0.0295,0.0337,0.0335,0.0335,0.0355,0.0355,0.0356,0.0346,0.0345,0.0344,0.0343,0.0361,0.0362,0.0364,0.0387,0,0,0.0368,0.0368,0,0,0,0,0,0,0,0,0.0311,0.0314,0.0335,0.0335,0.0335,0.0347,0.0346,0.0366,0.0346,0.0341,0.0344,0.0343,0.0357,0.0359,0.0364,0.0388,0.0389,0.0368,0.0369,0.0369,0.037,0,0,0,0,0,0,0,0.031,0.0313,0.0344,0.0335,0.0335,0.0333,0.0334,0.035,0.0353,0.0342,0.0341,0.0343,0.0357,0.0363,0.0364,0.0389,0.0368,0.0369,0.037,0.0371,0.0432,0.0433,0,0,0,0,0,0,0.0309,0.0312,0.0344,0.0345,0.0321,0.0334,0.0336,0.0344,0.0353,0.0354,0.0344,0.0343,0.0361,0.0363,0.0365,0.0392,0.0369,0.0371,0.0371,0.0431,0.0432,0.0433,0,0,0,0,0,0,0.0308,0.0312,0.0343,0.0328,0.0332,0.0336,0.0345,0.0345,0.035,0.0355,0.0355,0.0349,0.036,0.0363,0.0381,0.0393,0.0371,0.0373,0.043,0.0432,0.0433,0.0448,0,0,0,0,0,0,0.0307,0.0312,0.0321,0.0329,0.0333,0.036,0.0345,0.0346,0.0353,0.0351,0.036,0.036,0.036,0.0379,0.0383,0.0394,0.0374,0.0429,0.0431,0.0432,0.0447,0.045,0.0452,0,0,0,0,0,0.0306,0.0325,0.0322,0.0325,0.0345,0.036,0.0363,0.0362,0.0354,0.0363,0.0366,0.036,0.0391,0.0381,0.0385,0.0397,0.0429,0.0431,0.0432,0.0445,0.0449,0.0452,0,0,0,0,0,0,0.0318,0.0326,0.0322,0.0344,0.0352,0.0359,0.037,0.0366,0.0376,0.0374,0.0373,0.0375,0.0394,0.0397,0.0387,0.042,0.0409,0.0411,0.0417,0.0421,0.0424,0.0422,0.0375,0,0,0,0,0,0.0323,0.0336,0.0342,0.0361,0.0365,0.0367,0.0374,0.0372,0.038,0.0383,0.0387,0.0395,0.0406,0.0414,0.0424,0.0447,0.0449,0.0457,0.046,0.0463,0.0465,0.0477,0.0481,0.0439,0.0439,0.0439,0,0,0.0335,0.034,0.0348,0.0363,0.0369,0.0382,0.0369,0.0384,0.0393,0.0385,0.0403,0.0406,0.0414,0.0435,0.0444,0.0439,0.0477,0.0465,0.0467,0.0468,0.0479,0.0483,0.0486,0.044,0.044,0.044,0,0,0.0361,0.0367,0.0383,0.0389,0.0398,0.0399,0.0403,0.041,0.0412,0.043,0.0424,0.0435,0.0455,0.0461,0.0467,0.0495,0.049,0.0499,0.0514,0.0526,0.0529,0.0532,0.0542,0.0545,0.0501,0.0501,0.0501,0,0.0374,0.0393,0.0392,0.0407,0.0413,0.0407,0.0423,0.0429,0.044,0.0445,0.0438,0.0463,0.0468,0.049,0.0497,0.0501,0.0506,0.0498,0.0528,0.0531,0.0534,0.0544,0.0547,0.0502,0.0502,0.0502,0.0502,0,0.0408,0.0422,0.0434,0.0445,0.0453,0.0469,0.0469,0.0478,0.0475,0.0477,0.0495,0.0501,0.0513,0.0518,0.0516,0.0539,0.0535,0.0529,0.0517,0.0539,0.0548,0.0552,0.0504,0.0503,0.0503,0.0503,0,0,0.0444,0.0454,0.0459,0.0464,0.0473,0.0483,0.0498,0.0509,0.0516,0.0524,0.0536,0.0553,0.0547,0.0553,0.0552,0.0562,0.0584,0.0554,0.0554,0.0559,0.061,0.0615,0.0619,0.0581,0.0581,0.0582,0.0609,0,0.0471,0.0497,0.0496,0.052,0.0533,0.0526,0.0539,0.0546,0.0548,0.0558,0.056,0.0572,0.0563,0.0567,0.0577,0.0579,0.0594,0.0577,0.0592,0.0592,0.059,0.0624,0.0629,0.0654,0.0612,0.0613,0.0613,0,0.0506,0.0516,0.0541,0.0548,0.0553,0.0565,0.0575,0.0585,0.0592,0.0593,0.06,0.0597,0.0611,0.0599,0.0619,0.0608,0.0614,0.0616,0.0617,0.0618,0.0604,0.0626,0.0662,0.0666,0.0619,0.0619,0.0618,0,0.0529,0.0548,0.0566,0.0571,0.0579,0.0587,0.0591,0.0598,0.0604,0.0613,0.0618,0.0628,0.0634,0.0642,0.0642,0.0633,0.0662,0.0649,0.0662,0.0662,0.0669,0.0668,0.0707,0.0673,0.0673,0.0673,0.0673,0,0.056,0.0576,0.0576,0.0587,0.0605,0.0603,0.062,0.0623,0.0629,0.064,0.0635,0.0646,0.0645,0.0655,0.0655,0.0671,0.0674,0.0675,0.0674,0.0675,0.0675,0.0679,0.0677,0.0674,0.0673,0.0673,0.0673,0,0.0589,0.059,0.0609,0.0615,0.0617,0.0629,0.0635,0.0645,0.0646,0.066,0.0663,0.0666,0.0678,0.0678,0.0692,0.0692,0.0711,0.0709,0.0709,0.0709,0.0722,0.072,0.0764,0.0769,0.0732,0.0732,0.0732,0,0.0608,0.062,0.0628,0.0635,0.0639,0.0651,0.0658,0.0657,0.0664,0.0673,0.0682,0.0693,0.0703,0.0722,0.0725,0.0735,0.0733,0.0747,0.0734,0.0735,0.0733,0.0732,0.0733,0.075,0.075,0.0751,0.0751,0,0.0642,0.0642,0.0652,0.0663,0.0671,0.0679,0.0687,0.0693,0.0693,0.0701,0.0714,0.0721,0.0735,0.0746,0.0756,0.076,0.0755,0.0755,0.0758,0.0759,0.0759,0.0759,0.0716,0.0754,0.0754,0.0753,0.0753,0.0753,0.0666,0.0677,0.0684,0.0695,0.0701,0.0708,0.0718,0.072,0.0731,0.0742,0.0741,0.0754,0.0761,0.0774,0.0778,0.0789,0.0784,0.0789,0.079,0.0791,0.0793,0.0757,0.079,0.079,0.079,0.079,0.079,0,0.07,0.0704,0.0715,0.0726,0.0735,0.073,0.0738,0.0746,0.0758,0.0764,0.0773,0.0787,0.0798,0.0802,0.0812,0.082,0.0818,0.0823,0.0822,0.0823,0.0797,0.0792,0.0824,0.0824,0.0824,0.0824,0.0824,0.0824,0.0719,0.0736,0.0736,0.0756,0.076,0.0773,0.0778,0.0785,0.079,0.0806,0.0815,0.0817,0.0822,0.0833,0.0843,0.0843,0.0848,0.0853,0.0853,0.0828,0.0825,0.0822,0.0818,0.0854,0.0854,0.0878,0.0878,0.0879]},{"header":{"parameterUnit":"m.s-1","parameterCategory":1,"la1":30.2991,"la2":30.254,"lo1":-89.0895,"lo2":-89.0444,"dy":0.0017,"dx":0.0017,"nx":28,"ny":28,"refTime":"2025-04-25T03:00:00:Z","depth":0,"parameterNumber":3,"parameterNumberName":"V-component_of_WINDS"},"data":[0,0,0,0,0,0,0,0,0,0,0,0,0,0,0,0,0,0,0,0,0,0,0,0,0,0,0,0,0,0,0,0,0,0,0,0,0,0,0,0,0,0,0,0,0,0,0,0,0,0,0,0,0,0,0,0,0,0,0.318,0.318,0,0.3159,0.3159,0.3158,0.3123,0.3122,0.3121,0.3121,0.31,0.31,0.31,0,0,0,0,0,0,0,0,0,0,0,0,0,0.319,0.319,0.318,0.318,0.3179,0.3159,0.3159,0.3158,0.3123,0.3122,0.3121,0.312,0.31,0.31,0.31,0,0,0,0,0,0,0,0,0,0,0,0,0,0.3179,0.319,0.318,0.3159,0.3157,0.3159,0.3159,0.3158,0.3123,0.3122,0.3121,0.312,0.31,0.31,0.31,0.3121,0,0,0.31,0.31,0,0,0,0,0,0,0,0,0.318,0.3179,0.3162,0.3161,0.3158,0.3142,0.3154,0.3146,0.3123,0.3136,0.3121,0.3119,0.3115,0.3114,0.3112,0.312,0.3119,0.31,0.31,0.31,0.31,0,0,0,0,0,0,0,0.318,0.3179,0.3172,0.3162,0.316,0.3151,0.3148,0.3153,0.3131,0.3135,0.3132,0.313,0.3113,0.3112,0.3111,0.3118,0.31,0.31,0.31,0.31,0.3142,0.3143,0,0,0,0,0,0,0.3184,0.318,0.3172,0.3171,0.3167,0.3152,0.3149,0.3148,0.3131,0.3127,0.3131,0.3128,0.3112,0.3111,0.311,0.3133,0.31,0.31,0.31,0.3141,0.3142,0.3143,0,0,0,0,0,0,0.3184,0.3184,0.3173,0.3175,0.3173,0.3153,0.3153,0.3149,0.3147,0.3128,0.3124,0.3133,0.3111,0.311,0.3118,0.3132,0.31,0.3101,0.314,0.3141,0.3143,0.318,0,0,0,0,0,0,0.3185,0.3184,0.3192,0.3175,0.3173,0.3181,0.3153,0.3149,0.3147,0.3144,0.3129,0.3126,0.311,0.3118,0.3118,0.3132,0.3101,0.3138,0.3141,0.3142,0.3177,0.3182,0.3187,0,0,0,0,0,0.3185,0.3203,0.3192,0.3191,0.3182,0.3182,0.3181,0.3163,0.3148,0.3156,0.3144,0.3126,0.3131,0.3119,0.3119,0.3133,0.3138,0.314,0.3142,0.3175,0.3181,0.3187,0,0,0,0,0,0,0.3222,0.3201,0.3188,0.3201,0.3194,0.3176,0.3185,0.317,0.3167,0.3164,0.3141,0.3138,0.3149,0.3142,0.313,0.3152,0.3131,0.3134,0.3156,0.3162,0.3167,0.3168,0.3101,0,0,0,0,0,0.3231,0.3233,0.3215,0.3228,0.3225,0.3206,0.3205,0.3192,0.3183,0.318,0.3168,0.3161,0.3161,0.3161,0.316,0.3176,0.3172,0.3185,0.319,0.3194,0.3196,0.3204,0.321,0.3151,0.3151,0.3151,0,0,0.3251,0.324,0.3242,0.3235,0.3228,0.323,0.3203,0.3207,0.3209,0.3181,0.3188,0.3179,0.3169,0.3182,0.3186,0.3176,0.3212,0.3197,0.32,0.32,0.3207,0.3213,0.3218,0.3153,0.3152,0.3152,0,0,0.3289,0.328,0.329,0.3283,0.3272,0.326,0.3262,0.3247,0.324,0.3246,0.3225,0.3227,0.3227,0.3221,0.3218,0.3252,0.3236,0.3253,0.3278,0.3286,0.329,0.3294,0.3307,0.3312,0.3255,0.3255,0.3255,0,0.3315,0.3318,0.3297,0.3302,0.33,0.3274,0.3284,0.3278,0.3268,0.3267,0.3255,0.3254,0.3245,0.3256,0.3264,0.3263,0.3265,0.3254,0.3291,0.3295,0.3299,0.331,0.3315,0.3257,0.3257,0.3257,0.3257,0,0.335,0.3353,0.3362,0.3352,0.335,0.3358,0.3339,0.334,0.3326,0.3315,0.3322,0.3311,0.3307,0.3308,0.3295,0.3317,0.3311,0.3295,0.3274,0.3307,0.3317,0.3321,0.326,0.3259,0.3259,0.3258,0,0,0.341,0.3389,0.3392,0.3388,0.3374,0.3375,0.3382,0.3377,0.3379,0.3372,0.3377,0.3377,0.3363,0.336,0.3346,0.3353,0.3381,0.3337,0.3336,0.3345,0.3404,0.3416,0.3421,0.337,0.3371,0.3372,0.3405,0,0.3445,0.3454,0.3436,0.345,0.3452,0.3427,0.3433,0.3425,0.3415,0.3415,0.3403,0.3404,0.3385,0.3383,0.3389,0.3377,0.3393,0.3374,0.3375,0.3375,0.3378,0.3427,0.3439,0.3471,0.3409,0.341,0.341,0,0.3486,0.3482,0.3496,0.3481,0.3481,0.3486,0.3481,0.3481,0.3472,0.3464,0.346,0.3443,0.3449,0.3429,0.3436,0.3423,0.3423,0.3417,0.3418,0.3417,0.3395,0.3428,0.3481,0.3486,0.3417,0.3416,0.3416,0,0.3529,0.3526,0.3534,0.3531,0.3513,0.3518,0.3511,0.35,0.3499,0.3494,0.3493,0.3489,0.3487,0.3485,0.3467,0.3454,0.3477,0.3455,0.347,0.3471,0.3476,0.3476,0.353,0.3476,0.3476,0.3476,0.3475,0,0.3569,0.3579,0.3553,0.3558,0.3568,0.3547,0.3558,0.3548,0.3539,0.3542,0.3521,0.3524,0.3501,0.3502,0.3488,0.3496,0.3496,0.3489,0.3485,0.3491,0.3492,0.349,0.3488,0.3477,0.3477,0.3476,0.3476,0,0.3618,0.3601,0.3608,0.3591,0.3587,0.3596,0.3581,0.3585,0.3573,0.3577,0.3577,0.3558,0.3558,0.354,0.3536,0.3527,0.3541,0.3533,0.3544,0.3542,0.3558,0.3557,0.3613,0.362,0.3561,0.3562,0.3562,0,0.3645,0.3652,0.3636,0.3636,0.363,0.3631,0.3629,0.3609,0.3608,0.3598,0.3603,0.3601,0.3598,0.3599,0.3585,0.3582,0.3574,0.3594,0.3573,0.3579,0.3574,0.3574,0.3575,0.3598,0.3599,0.36,0.36,0,0.3695,0.3686,0.3684,0.368,0.3678,0.3674,0.3668,0.3669,0.3647,0.3647,0.3647,0.3644,0.364,0.3639,0.3633,0.3626,0.3609,0.3607,0.361,0.3616,0.3622,0.3619,0.3556,0.3605,0.3605,0.3605,0.3604,0.3604,0.3734,0.3739,0.3728,0.3727,0.372,0.3715,0.3718,0.3706,0.3705,0.37,0.3688,0.369,0.368,0.367,0.3665,0.3665,0.3655,0.366,0.3662,0.3663,0.3666,0.3622,0.3664,0.3664,0.3664,0.3664,0.3664,0,0.3783,0.3774,0.3774,0.3766,0.3765,0.3749,0.3742,0.3742,0.3743,0.3736,0.3733,0.3732,0.3731,0.3716,0.3713,0.3716,0.3709,0.3716,0.3716,0.3714,0.3675,0.3673,0.3722,0.3722,0.3722,0.3722,0.3722,0.3722,0.3808,0.3815,0.3805,0.3809,0.3801,0.3802,0.3799,0.3794,0.3788,0.3788,0.3786,0.3777,0.3766,0.3762,0.376,0.3755,0.3755,0.3765,0.3759,0.3723,0.3717,0.3712,0.3709,0.3765,0.3765,0.3797,0.3798,0.3798]}]]